Location: Unspecified
(0.0000°N, 0.0000°E)
Time: 04:46:28
(UTC+00:00)

N. Korean satellite - Pass Details

Date: 16 May 2019
Orbit: 457 x 508 km, 97.2° (Epoch: 22 May)

Event Time Altitude Azimuth Distance (km) Brightness Sun altitude
Rises 05:22:19 0° 23° (NNE) 2,490 10.9 -8.0°
Reaches altitude 10° 05:24:27 10° 32° (NNE) 1,610 10.0 -7.5°
Maximum altitude 05:27:40 37° 101° (E) 729 8.1 -6.8°
Drops below altitude 10° 05:30:53 10° 170° (S) 1,601 9.1 -6.0°
Sets 05:33:00 0° 178° (S) 2,474 10.0 -5.5°
